Location: Borea
(45.6167°N, 23.0167°E)
Time: 02:37:39
(UTC+00:00)

OPS 8068 - Pass Details

Date: 01 March 2024
Orbit: 631 x 963 km, 98.3° (Epoch: 13 April)

Event Time Altitude Azimuth Distance (km) Brightness Sun altitude
Rises 02:51:09 0° 157° (SSE) 2,933 ? -24.2°
Reaches altitude 10° 02:53:17 10° 155° (SSE) 2,048 ? -23.9°
Maximum altitude 02:57:41 68° 73° (ENE) 733 ? -23.1°
Drops below altitude 10° 03:02:27 10° 351° (N) 2,208 ? -22.3°
Sets 03:04:50 0° 349° (N) 3,184 ? -21.9°
